RH
62 61 60 70 42 29 33 37 30 34 34 36 38 36 36 41 47 66 68 61 68 76 90 69 68 68 67 63 63 64 63 65 67 68 61 48 42 41 42 47 50 56 58 58 52 49 53 57 52
69 54 70 48 35 32 33 33 36 37 39 40 40 41 41 52 65 78 67 70 70 74 85 92 67 67 67 67 64 64 64 66 68 69 67 53 45 42 42 43 48 58 58 59 56 53 56 60 60
48 52 47 38 29 31 32 34 38 38 39 39 40 44 46 58 75 73 66 73 68 74 78 89 62 60 54 55 62 64 67 67 69 70 68 58 47 42 40 44 53 58 62 68 56 59 62 61 68
57 47 45 31 32 31 32 32 35 37 39 40 41 44 63 78 74 72 71 70 67 72 73 69 56 55 44 45 52 52 64 66 69 69 65 53 44 41 40 48 59 74 74 75 60 59 63 63 66
50 39 33 31 31 30 28 34 36 37 40 40 41 47 60 83 78 76 71 68 68 74 74 57 46 47 41 36 39 44 56 60 65 66 55 44 42 38 41 55 64 78 77 62 58 59 62 62 65
32 34 28 27 25 27 29 33 36 36 39 43 42 47 76 88 77 73 69 67 69 67 77 92 42 41 37 36 37 38 40 44 48 48 44 40 38 40 50 57 64 77 66 62 61 59 60 63 63
27 30 31 28 30 28 30 35 33 32 38 40 44 49 87 81 73 73 68 69 70 71 75 89 89 57 42 39 40 41 44 40 38 38 38 38 42 46 50 58 80 71 73 61 61 63 64 65 64
26 28 27 26 27 29 30 33 37 35 38 46 46 48 70 84 75 72 68 71 74 75 80 81 92 99 96 78 58 76 78 72 57 53 50 50 52 54 58 65 71 68 57 60 68 70 71 69 65
32 24 23 22 22 24 30 31 40 42 39 44 48 46 57 85 82 72 70 73 80 91 88 77 79 90 90 95 86 70 59 66 81 68 66 70 92 90 96 85 78 61 70 76 77 79 77 77 78
22 20 20 19 18 20 27 31 35 37 39 45 58 61 79 94 89 70 71 75 79 83 86 77 74 91 95 86 93 90 97 95 93 92 98 99 92 95 91 79 65 72 83 89 84 84 83 78 99
20 19 16 17 18 20 22 30 33 32 32 36 47 65 83 100 81 72 71 70 71 74 78 82 81 87 85 86 90 89 85 83 85 77 78 94 90 87 79 85 67 85 78 81 92 88 89 98 99
18 15 14 16 18 21 21 30 29 33 32 37 46 61 79 88 69 67 64 64 66 71 75 89 70 90 88 85 84 82 80 81 80 89 98 98 86 82 86 91 80 79 78 84 81 84 89 93 76
16 13 13 12 13 16 26 27 28 32 38 42 49 60 68 68 63 62 60 61 67 71 72 85 77 94 95 95 86 87 86 85 79 90 94 86 78 85 87 93 84 77 83 81 83 84 86 98 98
12 13 12 13 18 22 22 24 30 33 39 45 50 53 56 58 58 60 60 61 66 68 69 72 68 94 95 94 95 92 91 85 82 85 88 78 86 93 87 88 91 83 76 71 87 88 86 94 89
12 11 11 12 22 22 24 18 23 35 39 44 45 48 50 53 55 59 61 64 65 68 70 71 86 92 93 81 90 91 87 83 78 80 81 66 89 80 77 90 86 81 86 69 72 85 77 96 94
12 9 11 10 13 21 26 16 21 34 36 39 41 45 48 51 54 58 60 63 66 70 71 74 77 82 90 89 85 89 86 84 78 74 84 68 91 74 79 84 80 84 72 91 93 72 90 84 91
10 12 12 11 12 17 19 17 16 20 33 34 40 44 46 49 53 57 59 62 63 72 58 76 78 81 73 80 91 94 91 90 79 77 80 92 97 96 78 84 80 81 87 91 89 88 88 86 88
13 11 10 10 9 10 13 23 24 20 25 29 38 42 44 44 49 54 58 60 63 71 66 58 75 65 72 84 78 94 86 83 78 79 78 88 93 94 77 84 82 78 82 87 90 68 58 67 86
10 10 11 9 9 12 21 28 31 31 29 30 36 39 40 42 43 51 56 60 63 68 78 60 59 60 51 53 83 90 88 85 86 84 87 92 89 91 69 84 79 83 80 84 76 84 83 75 81
9 10 10 8 10 9 18 31 32 35 37 36 37 35 35 38 42 47 56 58 62 68 75 72 62 59 53 73 67 84 85 82 86 86 91 94 92 90 79 65 83 78 74 90 76 71 77 72 77
9 10 9 10 9 8 9 24 33 31 37 40 42 40 37 36 37 42 50 56 59 66 76 68 56 61 58 62 92 78 88 90 88 85 90 93 78 80 70 70 78 76 78 73 90 86 87 67 68
9 8 9 10 11 12 9 23 33 32 34 39 44 46 44 40 30 38 42 53 57 64 71 81 70 59 60 59 85 86 84 86 76 80 79 84 92 79 92 74 73 71 68 78 86 81 74 79 66
8 8 9 10 10 10 14 18 32 31 38 38 43 51 51 48 44 34 37 43 54 60 66 76 89 80 65 61 68 75 72 78 80 78 81 86 89 81 94 89 85 84 89 77 86 93 80 75 71
8 9 9 10 8 14 19 18 35 40 44 39 41 50 57 55 46 49 39 41 49 57 68 72 83 65 65 63 61 61 83 80 76 76 80 87 81 81 79 94 84 75 86 93 89 89 90 74 80
9 10 11 11 11 15 18 26 40 36 37 39 40 47 57 58 58 46 46 46 50 57 67 74 82 93 88 64 61 62 62 67 78 72 82 81 73 76 80 90 88 85 78 76 79 84 83 88 83
10 8 10 17 13 16 19 36 40 33 36 40 42 45 53 62 65 67 58 56 60 62 68 75 79 93 96 96 74 63 63 82 84 84 83 81 83 79 79 85 87 83 79 80 78 76 78 90 84
11 13 9 9 10 11 23 34 32 32 35 39 43 46 50 60 70 74 73 75 66 69 71 79 84 94 94 93 96 93 77 70 84 85 86 83 83 84 88 88 84 77 76 88 77 79 90 79 86
11 11 14 12 19 18 19 28 32 42 42 38 42 48 51 54 62 75 80 82 82 72 72 80 85 92 92 92 93 95 97 94 96 97 95 86 89 94 69 75 79 81 83 76 89 83 82 82 84
15 15 15 13 15 19 20 28 39 44 42 38 40 48 54 58 60 64 74 86 92 88 84 84 90 93 92 92 90 93 92 93 89 94 97 97 87 75 70 72 74 74 75 76 80 80 84 82 79
17 17 15 18 23 19 19 30 36 38 38 38 42 46 49 56 60 62 64 71 87 94 93 99 99 99 99 97 98 96 97 96 90 74 62 76 96 77 74 74 72 72 74 75 77 77 86 77 75
Wind_Speed
5 4 3 1 5 2 8 8 3 7 5 7 7 1 4 7 6 4 13 17 24 25 24 24 21 20 18 17 17 18 15 14 12 10 8 7 6 5 4 4 4 4 5 5 4 5 7 9 10
2 4 1 3 5 5 8 5 8 7 6 4 5 2 1 6 7 11 20 20 25 24 23 22 22 20 18 17 15 16 15 13 12 10 7 5 4 2 2 2 2 2 2 3 4 4 5 7 8
3 3 3 3 3 8 9 6 8 7 3 2 3 3 3 4 5 16 12 24 24 22 21 21 21 19 17 16 15 13 14 13 12 10 7 5 4 2 1 1 2 3 0 2 4 4 5 6 7
3 2 3 3 8 5 5 5 7 6 5 2 1 7 7 5 8 8 25 25 22 21 20 21 21 19 17 15 15 13 13 12 11 10 8 6 5 3 2 2 3 2 3 3 4 3 5 7 7
3 2 1 3 5 3 3 4 1 2 2 1 2 6 7 4 7 19 25 23 21 20 19 20 19 17 16 15 14 13 12 12 11 10 8 7 6 5 3 2 1 2 3 4 3 3 4 5 4
4 2 2 9 10 5 2 0 1 2 1 2 4 8 7 7 16 22 23 21 19 19 17 18 18 17 16 15 13 12 11 11 11 10 9 8 6 6 4 3 1 2 2 3 3 3 2 3 3
5 3 6 6 8 6 6 1 2 2 2 1 5 6 6 12 19 21 22 20 19 17 16 15 15 16 14 14 13 11 10 9 9 9 9 8 7 6 5 4 4 4 3 3 3 2 3 2 2
4 3 3 5 9 9 6 1 2 1 5 6 7 6 10 20 20 21 21 20 19 17 16 15 17 14 14 13 12 10 8 7 8 8 8 8 7 7 6 4 3 3 4 3 3 2 3 3 3
2 2 7 8 9 7 2 1 3 2 6 2 3 3 12 25 23 22 22 20 19 17 17 15 13 15 13 11 11 11 10 9 7 6 6 6 3 6 5 6 6 4 4 3 3 3 3 2 3
3 3 8 5 7 8 2 1 2 3 4 4 6 10 21 25 24 24 23 22 21 19 18 17 15 12 11 11 12 10 8 7 6 8 8 5 7 5 6 5 5 6 4 2 2 3 3 3 5
2 5 7 6 7 8 3 1 3 2 3 3 9 15 20 23 21 22 22 22 21 21 19 18 17 14 11 10 7 7 7 7 8 10 9 5 5 5 3 4 6 2 1 3 5 6 4 3 5
3 4 7 8 7 7 4 3 1 2 4 5 10 16 20 21 20 21 22 22 21 21 20 20 20 13 13 11 9 9 8 8 7 7 8 6 5 5 6 5 5 3 3 6 8 6 5 5 4
3 9 9 10 11 6 1 1 1 3 5 9 14 17 19 20 19 18 19 19 19 20 20 18 18 16 14 13 10 9 9 8 8 8 8 7 7 6 5 4 4 2 3 5 7 6 4 2 4
10 10 8 9 6 1 4 1 4 3 11 14 15 18 18 18 20 18 19 19 18 19 20 18 21 17 13 12 12 9 8 8 9 9 9 10 8 7 6 3 4 5 6 7 7 6 5 2 2
8 5 6 12 6 4 6 5 2 9 13 16 16 16 18 18 19 19 19 18 18 19 19 20 19 18 14 13 11 9 9 9 9 9 12 12 9 8 6 4 3 2 5 7 5 6 6 3 3
6 2 4 8 9 5 5 15 17 4 9 16 19 19 18 19 19 18 18 17 17 18 20 20 18 18 16 13 11 9 10 11 10 10 10 14 11 10 6 4 3 5 4 4 4 6 4 5 3
3 6 6 6 5 4 4 14 20 7 6 8 11 13 16 16 17 18 18 19 17 18 22 19 19 18 18 16 11 9 10 11 11 10 10 12 11 10 9 5 5 5 4 4 3 3 5 6 2
7 7 6 6 5 7 11 13 18 15 3 4 9 11 13 15 17 17 18 18 19 18 18 22 19 21 19 14 14 10 9 10 11 12 11 13 11 11 11 8 7 5 4 4 3 4 6 6 4
5 7 7 3 5 6 11 14 16 19 16 4 5 10 13 15 14 18 19 20 19 19 19 20 21 21 21 22 16 14 12 11 12 12 12 13 13 12 13 9 8 8 6 7 4 4 5 3 6
6 7 4 4 6 1 10 16 14 18 17 12 9 5 9 13 16 17 20 22 22 22 22 23 24 22 23 19 20 16 14 12 12 12 13 14 13 14 13 11 10 10 9 9 7 5 3 4 4
10 8 6 5 3 4 4 12 16 14 19 17 14 8 6 9 15 19 20 22 23 24 24 25 26 25 23 23 17 19 17 15 16 15 13 14 15 14 16 16 13 11 11 9 9 7 6 3 4
12 4 3 3 7 3 4 6 16 13 17 21 21 18 12 8 7 17 19 21 21 22 23 24 26 28 26 25 20 20 18 15 13 13 13 13 16 17 16 16 16 13 11 13 10 8 7 6 4
10 5 4 5 8 7 2 1 10 11 16 19 23 23 20 15 6 8 18 19 20 20 21 21 23 27 29 28 27 24 21 20 16 15 15 18 16 19 18 17 17 16 14 14 14 11 10 8 7
4 9 11 8 7 6 4 4 11 9 15 16 22 25 25 23 17 2 9 14 16 18 19 20 22 24 27 30 29 29 21 21 18 19 18 16 16 17 19 19 19 20 17 15 14 14 14 12 10
10 13 6 7 7 6 4 6 6 9 11 15 18 23 24 24 23 15 5 4 9 13 15 16 18 20 23 27 29 30 28 25 23 24 20 18 16 17 17 18 20 18 20 20 19 17 16 16 11
10 9 4 4 3 10 3 8 6 9 12 14 17 20 22 23 24 21 14 6 1 6 12 15 16 19 20 23 26 27 28 25 23 22 20 19 18 20 17 17 21 19 21 21 21 20 19 16 17
7 6 8 1 3 6 7 9 8 7 10 13 17 20 23 24 23 22 19 14 8 2 5 9 12 14 17 19 21 23 25 27 23 24 21 21 23 22 19 22 23 24 22 22 24 24 20 20 21
6 3 6 4 3 6 8 9 8 5 7 10 14 18 20 22 23 22 20 18 14 8 2 5 8 11 12 16 18 19 20 23 23 23 23 23 21 22 25 26 25 23 23 24 25 25 23 25 21
5 8 1 5 5 7 5 7 7 7 6 8 13 15 17 18 20 20 20 18 16 12 7 2 4 6 10 13 15 18 19 21 22 22 23 24 23 24 25 26 26 27 27 27 26 26 26 27 26
2 2 8 7 3 1 8 5 7 8 8 7 10 12 13 14 15 16 17 18 17 14 7 5 3 0 2 8 12 16 19 21 21 23 24 25 24 24 24 25 26 28 30 29 28 27 27 30 30
Wind_Direction
325 359 330 282 230 199 57 65 55 83 85 57 115 45 34 23 25 54 144 154 155 159 163 160 163 156 152 148 154 158 168 172 166 157 149 130 125 114 92 77 76 67 65 71 99 94 99 102 103
246 356 308 279 298 52 75 55 59 57 79 115 119 136 33 79 53 128 149 156 156 158 163 165 169 164 162 156 158 159 164 174 170 166 164 157 149 136 87 56 41 45 41 79 108 109 96 107 111
27 17 290 303 346 43 57 76 102 89 75 112 96 31 27 43 79 137 164 154 154 158 161 174 172 172 170 169 167 171 166 172 176 178 186 188 191 200 250 313 357 344 10 131 115 106 103 116 128
334 292 244 339 52 67 21 72 110 113 82 72 76 93 86 45 147 154 152 152 155 159 159 178 174 174 176 174 174 181 178 182 190 197 198 203 216 254 282 322 2 42 130 153 143 133 110 117 126
335 277 46 89 63 40 29 43 160 166 88 107 208 118 93 62 143 147 152 153 159 158 165 173 176 179 180 177 180 183 189 191 196 207 207 213 240 248 268 314 354 109 130 142 158 148 125 140 141
248 295 108 62 62 45 15 338 176 229 356 125 139 126 86 112 141 149 153 155 160 156 165 169 174 180 183 182 183 186 191 198 199 209 219 225 226 256 265 292 225 162 156 161 174 200 215 178 175
315 295 55 44 33 46 14 18 257 2 88 97 135 114 116 139 152 154 155 157 158 159 161 168 171 178 185 190 188 189 194 199 206 208 213 223 238 251 251 255 229 197 185 197 200 251 276 277 253
317 287 82 59 22 42 17 21 42 40 74 117 154 147 162 159 156 157 158 160 162 165 169 171 178 182 176 185 182 186 198 202 204 213 222 227 236 248 261 246 258 232 218 227 244 272 267 256 247
357 237 53 28 7 10 25 290 67 93 124 109 136 101 144 155 158 160 163 167 170 173 170 174 181 193 180 195 197 199 208 203 206 207 218 227 222 265 268 249 237 242 236 264 267 260 230 231 258
317 19 20 348 349 340 21 297 140 166 130 124 117 121 142 154 159 165 172 175 178 177 176 176 180 182 179 189 198 187 201 196 191 205 227 192 219 207 198 234 207 218 234 282 295 272 264 275 239
63 16 356 351 331 327 21 209 178 265 139 126 162 152 154 157 164 172 179 182 182 179 181 178 180 184 186 193 182 191 191 197 211 215 189 212 200 220 200 215 199 225 87 304 313 294 268 264 221
295 7 345 325 338 310 340 102 116 240 78 96 149 161 163 165 171 178 181 182 184 184 185 183 184 185 186 193 184 193 195 205 198 208 209 203 186 215 191 218 248 250 312 315 349 322 294 239 248
289 343 340 328 302 278 238 199 330 200 153 133 145 159 168 170 173 176 180 184 186 189 189 196 182 188 189 192 197 198 201 204 205 204 209 198 195 200 206 236 248 289 312 333 316 1 16 247 240
330 316 333 359 1 55 268 171 229 133 164 146 151 163 168 174 175 174 179 185 189 191 194 196 197 196 195 195 201 198 209 211 205 209 209 200 193 213 216 271 303 318 323 319 318 325 324 28 225
309 316 121 31 21 32 307 211 162 146 155 157 160 168 171 174 179 184 182 187 189 192 194 198 199 199 203 205 208 210 218 219 211 207 209 200 202 230 208 271 285 311 309 331 339 344 9 332 323
305 208 63 46 14 17 293 55 34 125 177 174 172 174 180 183 183 186 190 190 195 198 195 197 200 202 209 206 214 210 217 211 216 210 214 208 215 219 239 268 275 276 331 307 307 348 336 14 318
174 8 24 93 32 29 356 12 1 349 208 186 187 187 188 189 193 194 195 195 197 202 204 201 204 204 216 211 211 215 214 210 214 211 208 233 221 228 234 251 273 290 315 326 305 325 341 3 336
13 340 345 3 38 38 46 40 19 11 183 200 179 205 208 202 204 204 202 203 204 205 213 214 208 210 210 213 212 211 216 212 211 209 215 226 226 232 236 250 260 278 276 290 303 323 353 359 352
313 311 308 348 78 77 65 49 39 34 39 57 186 205 217 222 212 212 212 208 206 209 212 219 221 222 220 218 210 213 216 216 219 218 218 222 231 241 239 239 262 274 265 264 287 305 322 334 341
276 286 287 292 93 260 79 67 55 50 46 45 29 329 249 231 216 214 210 211 213 210 210 217 223 225 227 221 220 217 218 228 229 226 231 231 235 233 236 240 251 259 244 264 262 276 276 311 319
242 289 346 336 335 152 207 72 49 56 52 42 36 12 318 273 238 217 216 214 212 213 214 219 222 223 226 220 223 220 223 221 233 231 241 234 235 235 240 249 252 250 240 243 257 264 254 264 293
277 69 305 287 294 17 320 113 45 33 42 38 28 28 15 347 241 221 217 219 216 217 215 215 222 223 224 224 215 219 224 226 240 241 244 237 244 243 241 247 250 259 243 241 250 263 239 248 255
297 335 306 302 285 259 88 193 36 34 22 24 24 25 25 19 353 232 223 221 218 219 217 218 215 219 219 224 219 227 228 232 232 235 235 242 235 245 243 244 250 257 251 252 243 241 251 249 237
305 266 245 247 241 175 14 266 50 22 8 12 20 23 24 23 19 336 219 221 221 219 216 213 214 221 223 226 229 230 223 222 223 230 231 245 245 244 250 241 249 255 251 251 251 253 254 245 239
239 244 245 198 191 56 92 67 54 42 30 22 22 26 26 30 34 43 79 199 217 221 221 221 218 221 219 223 227 230 233 234 233 235 238 237 243 242 241 249 248 255 259 251 256 244 239 255 245
208 306 301 202 219 115 175 138 100 84 53 41 37 35 32 33 37 41 44 42 313 225 220 219 221 219 217 220 225 231 234 232 233 235 234 241 247 250 249 251 258 257 255 256 257 258 254 249 252
152 240 15 254 178 233 108 103 153 100 60 44 38 36 35 33 33 34 36 37 26 339 230 226 224 227 222 223 224 227 231 233 232 237 238 242 240 245 254 253 259 262 264 259 256 254 250 252 242
303 18 240 229 197 245 155 168 98 114 52 45 42 38 37 36 34 31 31 31 33 31 326 251 236 236 230 229 231 231 230 236 239 240 243 242 244 248 253 255 263 260 263 261 253 252 253 252 251
181 206 209 313 308 314 235 128 102 105 70 55 49 42 36 33 34 32 28 28 31 36 33 3 271 238 234 233 229 232 231 232 239 241 245 250 253 253 256 257 257 259 259 258 257 254 248 250 251
294 11 269 315 139 186 303 79 121 112 91 60 51 39 35 33 28 26 25 23 23 19 58 61 37 283 253 245 246 244 243 239 241 243 250 248 248 252 257 258 255 255 257 256 253 250 248 253 248